Cosmos 1602 Rocket - Orbit

View from above orbital plane
View from above orbital plane
View from above satellite
View from above satellite

Ground track
Ground track

The orbit data is extracted from the following two-line orbital elements,

1 15332U 84105B   13168.96034145  .00000214  00000-0  23555-4 0  3572
2 15332 082.5363 112.2510 0022836 140.5337 332.3256 14.82388252550174
Epoch (UTC): 17 June 2013 23:02:53
Eccentricity: 0.0022836
inclination: 82.5363°
perigee height: 606 km
apogee height: 638 km
right ascension of ascending node: 112.2510°
argument of perigee: 140.5337°
revolutions per day: 14.82388252
mean anomaly at epoch: 332.3256°
orbit number at epoch: 55017

The dashed part of the orbit path shows where the satellite is in the earth's shadow,  

Developed and maintained by Chris Peat, Heavens-Above GmbH. Please read the updated FAQ before sending e-mail. Imprint. DLR